period_start,C,m1,H,J0,J1,J2,J3,J4,J5,JA,JB,JC,JD,JJ,JK,JN,#
2014-07-03 00:00:03,0.02,0.09,0.00,22.63,26.77,29.50,9.63,36.62,1020.04,2043.99,3517.40,3300.05,3591.99,500.50,499.43,6.49,0000 0000 0000 0000 000000
2014-07-03 00:05:04,0.02,0.09,0.00,22.63,26.77,29.47,9.63,36.66,1020.04,2043.99,3516.84,3299.91,3591.56,499.94,498.82,6.53,0000 0000 0000 0000 000000
2014-07-03 00:10:05,0.12,0.10,0.00,22.65,26.77,29.51,9.58,36.51,1020.05,2043.98,3514.93,3298.54,3590.12,499.63,498.58,6.57,0000 0000 0000 0000 000000
2014-07-03 00:15:07,0.06,0.10,0.00,22.62,26.77,29.50,9.57,36.64,1020.05,2043.99,3513.28,3297.45,3588.98,499.78,498.65,6.61,0000 0000 0000 0000 000000
2014-07-03 00:20:08,0.07,0.10,0.00,22.65,26.77,29.49,9.56,36.51,1020.10,2043.99,3511.98,3296.59,3587.93,499.64,498.52,6.65,0000 0000 0000 0000 000000
2014-07-03 00:25:09,0.10,0.11,0.00,22.65,26.77,29.49,9.57,36.67,1020.20,2043.99,3509.73,3295.20,3586.44,499.84,499.12,6.70,0000 0000 0000 0000 000000
2014-07-03 00:30:10,0.06,0.11,0.00,22.67,26.77,29.48,9.59,36.55,1020.35,2043.99,3508.12,3294.05,3585.20,499.72,499.01,6.74,0000 0000 0000 0000 000000
2014-07-03 00:35:11,0.06,0.11,0.00,22.64,26.76,29.49,9.63,36.63,1020.38,2043.99,3507.03,3293.50,3584.58,500.08,499.16,6.78,0000 0000 0000 0000 000000
2014-07-03 00:40:12,0.04,0.12,0.00,22.64,26.76,29.50,9.60,36.49,1020.31,2043.99,3505.67,3292.63,3583.82,499.70,498.80,6.82,0000 0000 0000 0000 000000
2014-07-03 00:45:13,0.04,0.12,0.00,22.62,26.76,29.48,9.61,36.53,1020.29,2043.99,3504.67,3292.02,3583.04,500.05,499.08,6.86,0000 0000 0000 0000 000000
2014-07-03 00:50:15,0.06,0.12,0.00,22.62,26.76,29.50,9.56,36.67,1020.28,2043.99,3503.45,3291.31,3582.43,499.84,498.97,6.91,0000 0000 0000 0000 000000
2014-07-03 00:55:16,0.06,0.12,0.00,22.62,26.76,29.50,9.54,36.59,1020.39,2043.98,3502.30,3290.49,3581.59,499.80,498.89,6.95,0000 0000 0000 0000 000000
2014-07-03 01:00:17,0.02,0.13,0.00,22.66,26.75,29.51,9.57,36.58,1020.48,2043.99,3501.14,3290.00,3580.99,499.86,499.01,6.99,0000 0000 0000 0000 000000
2014-07-03 01:05:18,0.01,0.13,0.00,22.64,26.75,29.49,9.62,36.80,1020.50,2043.99,3500.76,3289.89,3580.68,500.25,499.40,7.03,0000 0000 0000 0000 000000
2014-07-03 01:10:19,0.01,0.13,0.00,22.61,26.75,29.48,9.61,36.62,1020.52,2043.99,3500.42,3289.84,3580.53,499.80,499.08,7.07,0000 0000 0000 0000 000000
2014-07-03 01:15:20,0.01,0.13,0.00,22.62,26.76,29.49,9.65,36.56,1020.52,2043.99,3500.18,3289.66,3580.29,500.58,499.84,7.11,0000 0000 0000 0000 000000
2014-07-03 01:20:22,0.01,0.13,0.00,22.63,26.76,29.49,9.56,36.73,1020.52,2043.98,3500.02,3289.15,3580.05,499.64,498.93,7.16,0000 0000 0000 0000 000000
2014-07-03 01:25:23,-0.00,0.13,0.00,22.67,26.76,29.49,9.69,36.73,1020.52,2043.97,3500.00,3289.06,3580.02,500.04,499.21,7.20,0000 0000 0000 0000 000000
2014-07-03 01:30:24,0.00,0.13,0.00,22.66,26.77,29.49,9.52,36.62,1020.53,2043.98,3500.00,3289.08,3580.01,499.78,499.01,7.24,0000 0000 0000 0000 000000
2014-07-03 01:35:25,0.00,0.13,0.00,22.64,26.77,29.51,9.65,36.67,1020.55,2043.99,3500.00,3289.05,3580.00,500.21,499.47,7.28,0000 0000 0000 0000 000000
2014-07-03 01:40:26,-0.00,0.13,0.00,22.64,26.77,29.49,9.57,36.63,1020.55,2043.98,3499.99,3289.02,3580.00,499.46,498.89,7.32,0000 0000 0000 0000 000000
2014-07-03 01:45:27,-0.00,0.13,0.00,22.63,26.77,29.53,9.55,36.92,1020.55,2043.97,3499.97,3289.01,3580.00,499.66,498.93,7.37,0000 0000 0000 0000 000000
2014-07-03 01:50:29,-0.00,0.13,0.00,22.60,26.77,29.54,9.51,36.83,1020.69,2043.98,3499.97,3289.00,3580.00,499.74,499.02,7.41,0000 0000 0000 0000 000000
2014-07-03 01:55:30,0.00,0.13,0.00,22.64,26.77,29.51,9.57,36.96,1020.79,2043.96,3499.79,3289.00,3579.98,500.02,499.35,7.45,0000 0000 0000 0000 000000
2014-07-03 02:00:31,-0.00,0.13,0.00,22.64,26.77,29.52,9.56,37.10,1020.82,2043.97,3499.57,3289.00,3579.99,499.76,499.21,7.49,0000 0000 0000 0000 000000
2014-07-03 02:05:32,0.01,0.13,0.00,22.60,26.77,29.51,9.73,38.27,1020.88,2043.97,3499.16,3288.99,3579.91,500.31,499.69,7.53,0000 0000 0000 0000 000000
2014-07-03 02:10:33,0.01,0.13,0.00,22.61,26.77,29.48,9.66,38.17,1020.94,2043.98,3499.00,3288.91,3579.45,500.19,499.74,7.57,0000 0000 0000 0000 000000
2014-07-03 02:15:34,0.01,0.13,0.00,22.63,26.77,29.51,9.65,38.01,1020.98,2043.96,3498.98,3288.63,3579.07,500.08,499.65,7.62,0000 0000 0000 0000 000000
2014-07-03 02:20:35,0.00,0.13,0.00,22.63,26.77,29.49,9.63,37.70,1021.00,2043.96,3498.97,3288.41,3579.02,499.92,499.39,7.66,0000 0000 0000 0000 000000
2014-07-03 02:25:36,0.01,0.13,0.00,22.63,26.77,29.48,9.57,37.76,1021.01,2043.93,3498.73,3288.13,3579.01,499.88,499.16,7.70,0000 0000 0000 0000 000000
2014-07-03 02:30:38,0.01,0.13,0.00,22.65,26.77,29.49,9.54,37.67,1021.01,2043.93,3498.06,3288.02,3579.00,499.72,499.28,7.74,0000 0000 0000 0000 000000
2014-07-03 02:35:39,0.00,0.13,0.00,22.66,26.77,29.52,9.67,37.72,1021.01,2043.92,3498.00,3288.00,3578.98,499.97,499.52,7.78,0000 0000 0000 0000 000000
2014-07-03 02:40:40,-0.00,0.13,0.00,22.64,26.77,29.51,9.70,37.42,1021.01,2043.89,3497.99,3288.00,3578.95,500.51,499.93,7.83,0000 0000 0000 0000 000000
2014-07-03 02:45:41,0.01,0.13,0.00,22.64,26.77,29.52,9.61,37.31,1021.01,2043.96,3497.99,3288.00,3578.96,499.80,499.20,7.87,0000 0000 0000 0000 000000
2014-07-03 02:50:42,-0.00,0.13,0.00,22.66,26.77,29.52,9.59,37.11,1021.02,2043.95,3497.97,3288.00,3578.96,499.58,498.96,7.91,0000 0000 0000 0000 000000
2014-07-03 02:55:43,0.00,0.13,0.00,22.65,26.77,29.53,9.66,37.32,1021.02,2043.92,3497.92,3288.00,3578.77,499.86,499.46,7.95,0000 0000 0000 0000 000000
2014-07-03 03:00:44,-0.00,0.13,0.00,22.65,26.77,29.53,9.66,37.23,1021.02,2043.95,3497.94,3288.00,3578.87,500.31,499.65,7.99,0000 0000 0000 0000 000000
2014-07-03 03:05:45,0.00,0.13,0.00,22.69,26.77,29.52,9.59,37.15,1021.03,2043.90,3497.90,3288.00,3578.65,499.88,499.25,8.03,0000 0000 0000 0000 000000
2014-07-03 03:10:46,0.01,0.13,0.00,22.68,26.77,29.54,9.63,37.18,1021.02,2043.88,3497.75,3288.00,3578.37,499.78,499.12,8.08,0000 0000 0000 0000 000000
2014-07-03 03:15:47,0.01,0.13,0.00,22.67,26.77,29.50,9.61,37.14,1021.04,2043.85,3497.32,3288.00,3578.11,499.97,499.43,8.12,0000 0000 0000 0000 000000
2014-07-03 03:20:48,-0.01,0.13,0.00,22.67,26.77,29.46,9.56,36.99,1021.05,2043.71,3497.03,3287.98,3578.02,499.78,499.21,8.16,0000 0000 0000 0000 000000
2014-07-03 03:25:49,0.01,0.13,0.00,22.64,26.77,29.43,9.62,37.17,1021.13,2043.69,3497.00,3287.87,3578.00,500.09,499.59,8.20,0000 0000 0000 0000 000000
2014-07-03 03:30:51,-0.01,0.13,0.00,22.66,26.77,29.42,9.62,37.17,1021.08,2043.64,3496.90,3287.53,3578.00,500.23,499.70,8.24,0000 0000 0000 0000 000000
2014-07-03 03:35:52,0.02,0.13,0.00,22.71,26.77,29.34,9.60,37.20,1021.07,2043.43,3496.29,3287.13,3577.98,500.14,499.52,8.29,0000 0000 0000 0000 000000
2014-07-03 03:40:53,0.00,0.13,0.00,22.69,26.77,29.28,9.61,37.10,1021.10,2043.45,3496.04,3287.04,3577.95,499.97,499.39,8.33,0000 0000 0000 0000 000000
2014-07-03 03:45:54,-0.01,0.13,0.00,22.70,26.78,29.21,9.59,37.28,1021.10,2043.30,3496.00,3287.00,3577.69,499.61,499.26,8.37,0000 0000 0000 0000 000000
2014-07-03 03:50:55,0.00,0.13,0.00,22.69,26.79,29.20,9.64,37.07,1021.06,2043.24,3495.99,3287.00,3577.29,500.21,499.62,8.41,0000 0000 0000 0000 000000
2014-07-03 03:55:56,-0.01,0.13,0.00,22.71,26.80,29.19,9.65,37.02,1021.04,2043.13,3495.97,3287.00,3577.04,500.37,499.52,8.45,0000 0000 0000 0000 000000
2014-07-03 04:00:57,0.01,0.13,0.00,22.81,26.80,29.19,9.56,36.83,1021.03,2043.17,3495.96,3286.99,3577.03,500.00,499.17,8.49,0000 0000 0000 0000 000000
2014-07-03 04:05:59,0.01,0.13,0.00,22.88,26.81,29.19,9.53,36.73,1021.05,2043.23,3495.86,3286.99,3577.00,500.00,498.94,8.54,0000 0000 0000 0000 000000
2014-07-03 04:11:00,0.00,0.13,0.00,22.90,26.82,29.21,9.53,36.77,1021.18,2043.09,3495.21,3286.89,3576.99,499.71,498.81,8.58,0000 0000 0000 0000 000000
2014-07-03 04:16:01,0.00,0.13,0.00,22.92,26.83,29.22,9.68,36.68,1021.34,2043.02,3495.01,3286.52,3576.98,500.41,499.51,8.62,0000 0000 0000 0000 000000
2014-07-03 04:21:02,0.01,0.13,0.00,22.97,26.85,29.24,9.65,36.53,1021.38,2043.03,3495.00,3286.24,3576.76,500.18,499.12,8.66,0000 0000 0000 0000 000000
2014-07-03 04:26:02,0.01,0.13,0.00,23.02,26.86,29.25,9.51,36.43,1021.39,2043.01,3494.99,3286.04,3576.24,499.69,498.65,8.70,0000 0000 0000 0000 000000
2014-07-03 04:31:04,0.00,0.13,0.00,23.08,26.87,29.27,9.60,36.52,1021.31,2043.00,3494.96,3286.00,3576.02,500.09,498.62,8.75,0000 0000 0000 0000 000000
2014-07-03 04:36:05,0.00,0.13,0.00,23.12,26.90,29.28,9.59,36.65,1021.30,2043.00,3494.80,3286.00,3576.00,500.28,499.12,8.79,0000 0000 0000 0000 000000
2014-07-03 04:41:06,0.01,0.14,0.00,23.18,26.91,29.30,9.55,36.49,1021.45,2043.00,3494.36,3285.98,3575.99,499.91,498.62,8.83,0000 0000 0000 0000 000000
2014-07-03 04:46:07,0.00,0.14,0.00,23.24,26.92,29.32,9.45,36.47,1021.50,2043.00,3494.03,3285.94,3575.97,499.74,498.42,8.87,0000 0000 0000 0000 000000
2014-07-03 04:51:08,0.01,0.14,0.00,23.32,26.95,29.34,9.52,36.48,1021.50,2042.98,3494.02,3285.60,3575.80,499.94,498.39,8.91,0000 0000 0000 0000 000000
2014-07-03 04:56:09,0.02,0.14,0.00,23.39,26.97,29.35,9.51,36.52,1021.50,2042.97,3494.00,3285.14,3575.21,500.02,498.35,8.95,0000 0000 0000 0000 000000
2014-07-03 05:01:10,0.00,0.14,0.00,23.40,27.00,29.37,9.48,36.51,1021.50,2042.92,3493.97,3285.03,3575.03,499.80,498.22,9.00,0000 0000 0000 0000 000000
2014-07-03 05:06:11,-0.05,0.14,0.00,23.45,27.02,29.40,9.55,36.40,1021.50,2042.43,3493.55,3284.99,3574.98,499.78,497.74,9.04,0000 0000 0000 0000 000000
2014-07-03 05:11:12,-0.01,0.13,0.00,23.55,27.05,29.43,9.56,36.60,1021.50,2042.13,3493.08,3284.92,3574.77,500.00,498.09,9.08,0000 0000 0000 0000 000000
2014-07-03 05:16:13,0.02,0.14,0.00,23.63,27.07,29.46,9.52,36.38,1021.50,2042.02,3493.00,3284.34,3574.09,500.25,498.40,9.12,0000 0000 0000 0000 000000
2014-07-03 05:21:14,0.01,0.14,0.00,23.64,27.11,29.49,9.52,36.90,1021.50,2042.01,3492.91,3284.01,3573.98,499.78,497.56,9.16,0000 0000 0000 0000 000000
2014-07-03 05:26:15,0.01,0.14,0.00,23.68,27.14,29.53,9.58,36.81,1021.51,2042.00,3492.37,3283.99,3573.84,499.88,497.83,9.21,0000 0000 0000 0000 000000
2014-07-03 05:31:16,0.02,0.14,0.00,23.76,27.17,29.57,9.42,36.44,1021.51,2041.98,3492.04,3283.84,3573.18,499.70,497.46,9.25,0000 0000 0000 0000 000000
2014-07-03 05:36:17,0.01,0.14,0.00,23.83,27.21,29.60,9.51,36.48,1021.52,2041.98,3492.00,3283.43,3573.01,499.94,497.57,9.29,0000 0000 0000 0000 000000
2014-07-03 05:41:18,-0.00,0.14,0.00,23.89,27.24,29.64,9.56,36.44,1021.51,2041.89,3491.93,3283.02,3572.98,499.66,497.39,9.33,0000 0000 0000 0000 000000
2014-07-03 05:46:19,-0.03,0.14,0.00,23.93,27.27,29.68,9.50,36.55,1021.55,2041.45,3491.33,3282.99,3572.51,499.85,497.40,9.37,0000 0000 0000 0000 000000
2014-07-03 05:51:20,0.00,0.14,0.00,23.98,27.31,29.71,9.43,36.37,1021.58,2041.05,3491.01,3282.44,3572.02,499.80,497.35,9.41,0000 0000 0000 0000 000000
2014-07-03 05:56:21,0.01,0.14,0.00,24.05,27.35,29.75,9.49,36.77,1021.69,2041.00,3490.84,3282.02,3571.90,499.66,496.79,9.46,0000 0000 0000 0000 000000
2014-07-03 06:01:22,0.02,0.14,0.00,24.09,27.39,29.80,9.51,37.04,1021.73,2041.00,3490.18,3282.00,3571.32,499.94,497.42,9.50,0000 0000 0000 0000 000000
2014-07-03 06:06:23,0.01,0.14,0.00,24.13,27.43,29.83,9.52,36.48,1021.89,2041.00,3490.01,3281.81,3571.02,499.68,497.04,9.54,0000 0000 0000 0000 000000
2014-07-03 06:11:24,0.03,0.14,0.00,24.18,27.47,29.87,9.55,36.41,1021.95,2040.95,3489.61,3281.10,3570.79,500.11,497.36,9.58,0000 0000 0000 0000 000000
2014-07-03 06:16:25,-0.04,0.14,0.00,24.26,27.51,29.92,9.54,36.48,1021.94,2040.65,3489.02,3280.97,3570.07,499.79,497.12,9.62,0000 0000 0000 0000 000000
2014-07-03 06:21:26,-0.02,0.14,0.00,24.31,27.56,29.96,9.51,36.29,1021.87,2040.12,3488.90,3280.37,3569.90,499.94,496.96,9.67,0000 0000 0000 0000 000000
2014-07-03 06:26:27,0.03,0.14,0.00,24.36,27.60,30.01,9.49,36.48,1021.94,2040.00,3488.11,3280.01,3569.13,499.92,496.94,9.71,0000 0000 0000 0000 000000
2014-07-03 06:31:28,0.00,0.14,0.00,24.45,27.65,30.06,9.51,36.54,1021.97,2040.00,3487.99,3279.94,3568.99,499.88,497.08,9.75,0000 0000 0000 0000 000000
2014-07-03 06:36:29,0.04,0.14,0.00,24.55,27.69,30.10,9.56,36.52,1021.98,2039.99,3487.72,3279.31,3568.55,500.23,496.82,9.79,0000 0000 0000 0000 000000
2014-07-03 06:41:30,0.01,0.14,0.00,24.60,27.74,30.16,9.46,36.52,1021.97,2039.95,3487.04,3279.00,3568.02,499.71,496.30,9.83,0000 0000 0000 0000 000000
2014-07-03 06:46:31,-0.03,0.14,0.00,24.65,27.79,30.21,9.52,36.34,1021.98,2039.54,3486.73,3278.65,3567.77,499.98,496.62,9.87,0000 0000 0000 0000 000000
2014-07-03 06:51:33,-0.01,0.14,0.00,24.73,27.84,30.27,9.40,36.38,1021.98,2039.07,3486.02,3278.02,3567.04,499.51,495.98,9.92,0000 0000 0000 0000 000000
2014-07-03 06:56:34,0.05,0.14,0.00,24.82,27.89,30.32,9.47,36.31,1021.99,2039.01,3485.25,3277.49,3566.37,499.98,496.27,9.96,0000 0000 0000 0000 000000
2014-07-03 07:01:35,0.02,0.14,0.00,24.87,27.94,30.37,9.46,36.14,1021.99,2038.99,3484.32,3277.00,3565.89,499.80,495.91,10.00,0000 0000 0000 0000 000000
2014-07-03 07:06:36,0.02,0.14,0.00,24.91,27.99,30.43,9.51,36.23,1021.99,2038.90,3483.99,3276.39,3565.11,500.03,496.16,10.04,0000 0000 0000 0000 000000
2014-07-03 07:11:37,-0.05,0.14,0.00,24.98,28.04,30.49,9.53,36.27,1021.99,2038.23,3483.41,3275.99,3564.83,500.46,496.30,10.08,0000 0000 0000 0000 000000
2014-07-03 07:16:38,0.02,0.14,0.00,25.04,28.10,30.54,9.50,36.35,1021.99,2038.01,3483.00,3275.57,3564.07,500.22,496.18,10.13,0000 0000 0000 0000 000000
2014-07-03 07:21:39,0.02,0.14,0.00,25.03,28.15,30.60,9.48,36.24,1022.00,2038.00,3482.66,3275.03,3563.86,500.53,496.32,10.17,0000 0000 0000 0000 000000
2014-07-03 07:26:40,0.02,0.14,0.00,25.03,28.20,30.66,9.45,36.25,1022.02,2037.99,3482.03,3274.90,3563.07,499.87,495.93,10.21,0000 0000 0000 0000 000000
2014-07-03 07:31:42,-0.03,0.15,0.00,25.03,28.25,30.71,9.46,36.31,1022.05,2037.66,3481.84,3274.13,3562.79,500.06,495.97,10.25,0000 0000 0000 0000 000000
2014-07-03 07:36:43,-0.01,0.14,0.00,25.05,28.31,30.76,9.44,36.29,1022.10,2037.08,3481.10,3273.97,3562.06,499.82,495.85,10.29,0000 0000 0000 0000 000000
2014-07-03 07:41:44,0.02,0.14,0.00,25.04,28.36,30.80,9.59,36.30,1022.13,2037.00,3480.97,3273.28,3561.81,500.18,496.01,10.33,0000 0000 0000 0000 000000
2014-07-03 07:46:45,0.02,0.15,0.00,25.02,28.41,30.85,9.55,36.32,1022.22,2036.99,3480.48,3273.00,3561.08,500.31,496.32,10.38,0000 0000 0000 0000 000000
2014-07-03 07:51:46,-0.01,0.15,0.00,25.02,28.46,30.91,9.48,36.21,1022.26,2036.79,3480.00,3272.65,3560.90,499.74,495.70,10.42,0000 0000 0000 0000 000000
2014-07-03 07:56:48,-0.03,0.14,0.00,25.06,28.51,30.95,9.52,36.20,1022.41,2036.12,3479.84,3272.03,3560.17,499.89,496.07,10.46,0000 0000 0000 0000 000000
2014-07-03 08:01:49,0.01,0.14,0.00,25.08,28.56,30.99,9.52,36.15,1022.47,2036.01,3479.14,3271.94,3559.98,500.33,496.19,10.50,0000 0000 0000 0000 000000
2014-07-03 08:06:49,0.03,0.15,0.00,25.07,28.60,31.03,9.49,36.29,1022.48,2036.00,3478.99,3271.30,3559.40,500.13,496.27,10.54,0000 0000 0000 0000 000000
2014-07-03 08:11:51,0.01,0.15,0.00,25.08,28.64,31.07,9.50,36.32,1022.46,2035.94,3478.56,3271.01,3559.01,499.76,495.87,10.59,0000 0000 0000 0000 000000
2014-07-03 08:16:52,-0.03,0.15,0.00,25.10,28.69,31.11,9.52,36.24,1022.44,2035.57,3478.03,3270.92,3558.86,499.99,496.06,10.63,0000 0000 0000 0000 000000
2014-07-03 08:21:53,-0.01,0.14,0.00,25.12,28.73,31.14,9.50,36.17,1022.46,2035.12,3478.00,3270.39,3558.17,499.93,495.79,10.67,0000 0000 0000 0000 000000
2014-07-03 08:26:54,-0.00,0.14,0.00,25.14,28.77,31.17,9.55,36.29,1022.47,2035.02,3477.94,3270.03,3558.01,500.31,496.35,10.71,0000 0000 0000 0000 000000
2014-07-03 08:31:56,0.01,0.14,0.00,25.14,28.81,31.21,9.61,36.30,1022.46,2035.00,3477.25,3269.99,3557.88,500.39,496.43,10.75,0000 0000 0000 0000 000000
2014-07-03 08:36:57,0.03,0.15,0.00,25.13,28.84,31.24,9.53,36.37,1022.46,2034.98,3477.02,3269.55,3557.17,499.68,495.77,10.79,0000 0000 0000 0000 000000
2014-07-03 08:41:58,-0.01,0.15,0.00,25.16,28.88,31.28,9.65,36.50,1022.47,2034.87,3476.99,3269.04,3557.00,500.85,496.37,10.84,0000 0000 0000 0000 000000
2014-07-03 08:46:59,-0.06,0.14,0.00,25.18,28.91,31.31,9.44,36.27,1022.46,2034.31,3476.79,3268.99,3556.92,499.60,495.65,10.88,0000 0000 0000 0000 000000
2014-07-03 08:52:00,0.01,0.14,0.00,25.19,28.95,31.34,9.54,36.35,1022.47,2034.04,3476.11,3268.85,3556.19,500.35,496.25,10.92,0000 0000 0000 0000 000000
2014-07-03 08:57:01,0.02,0.14,0.00,25.20,28.98,31.37,9.44,36.17,1022.48,2034.00,3475.99,3268.19,3556.00,499.46,495.26,10.96,0000 0000 0000 0000 000000
2014-07-03 09:02:02,0.00,0.15,0.00,25.20,29.01,31.40,9.53,36.12,1022.48,2034.00,3475.81,3268.00,3555.97,500.38,496.19,11.00,0000 0000 0000 0000 000000
2014-07-03 09:07:03,0.02,0.15,0.00,25.22,29.05,31.43,9.56,36.52,1022.48,2033.99,3475.15,3268.00,3555.45,500.28,496.07,11.05,0000 0000 0000 0000 000000
2014-07-03 09:12:04,0.00,0.15,0.00,25.19,29.07,31.46,9.34,36.39,1022.48,2033.96,3475.00,3267.92,3555.03,499.75,495.55,11.09,0000 0000 0000 0000 000000
2014-07-03 09:17:05,0.01,0.15,0.00,25.19,29.10,31.48,9.62,36.26,1022.48,2033.91,3474.96,3267.33,3555.00,500.25,496.11,11.13,0000 0000 0000 0000 000000
2014-07-03 09:22:06,-0.01,0.15,0.00,25.17,29.12,31.51,9.58,36.35,1022.48,2033.64,3474.61,3267.02,3554.97,500.06,496.07,11.17,0000 0000 0000 0000 000000
2014-07-03 09:27:07,-0.03,0.15,0.00,25.16,29.15,31.54,9.56,36.29,1022.48,2033.17,3474.08,3267.00,3554.47,500.07,495.86,11.21,0000 0000 0000 0000 000000
2014-07-03 09:32:08,0.01,0.14,0.00,25.14,29.17,31.56,9.46,36.21,1022.48,2033.09,3474.01,3266.99,3554.11,499.85,495.84,11.25,0000 0000 0000 0000 000000
2014-07-03 09:37:09,-0.00,0.15,0.00,25.11,29.19,31.58,9.55,36.15,1022.48,2033.07,3474.00,3266.98,3554.07,500.39,496.45,11.30,0000 0000 0000 0000 000000
2014-07-03 09:42:11,0.00,0.15,0.00,25.09,29.21,31.59,9.71,36.49,1022.48,2033.01,3474.00,3266.86,3554.00,500.82,496.77,11.34,0000 0000 0000 0000 000000
2014-07-03 09:47:11,0.01,0.15,0.00,25.09,29.22,31.60,9.51,36.37,1022.48,2033.00,3473.98,3266.39,3554.00,499.76,495.83,11.38,0000 0000 0000 0000 000000
2014-07-03 09:52:13,0.02,0.15,0.00,25.09,29.24,31.63,9.56,36.38,1022.48,2033.00,3473.63,3266.04,3553.82,499.92,496.03,11.42,0000 0000 0000 0000 000000
2014-07-03 09:57:14,0.01,0.15,0.00,25.06,29.25,31.64,9.42,36.27,1022.48,2033.00,3473.48,3266.02,3553.66,499.61,495.89,11.46,0000 0000 0000 0000 000000
2014-07-03 10:02:15,0.01,0.15,0.00,25.03,29.26,31.65,9.58,36.39,1022.48,2032.99,3473.11,3266.00,3553.15,500.33,496.56,11.51,0000 0000 0000 0000 000000
2014-07-03 10:07:16,0.00,0.15,0.00,25.04,29.27,31.66,9.43,36.23,1022.48,2032.99,3473.07,3266.00,3553.10,499.81,496.09,11.55,0000 0000 0000 0000 000000
2014-07-03 10:12:17,0.00,0.15,0.00,25.04,29.27,31.68,9.53,36.18,1022.48,2032.98,3473.03,3266.00,3553.02,500.04,496.31,11.59,0000 0000 0000 0000 000000
2014-07-03 10:17:17,-0.00,0.15,0.00,25.02,29.30,31.68,9.55,36.25,1022.50,2032.96,3473.00,3265.98,3553.00,499.99,496.06,11.63,0000 0000 0000 0000 000000
2014-07-03 10:22:18,0.03,0.15,0.00,24.99,29.30,31.69,9.48,36.20,1022.49,2032.94,3472.82,3265.61,3552.83,499.61,495.85,11.67,0000 0000 0000 0000 000000
2014-07-03 10:27:19,0.13,0.15,0.00,24.97,29.30,31.69,9.49,36.23,1022.49,2032.82,3470.71,3263.76,3550.91,500.10,496.26,11.71,0000 0000 0000 0000 000000
2014-07-03 10:32:21,0.02,0.15,0.00,24.97,29.30,31.70,9.58,36.42,1022.50,2032.74,3469.51,3263.01,3550.01,500.27,496.58,11.76,0000 0000 0000 0000 000000
2014-07-03 10:37:22,-0.02,0.16,0.00,24.96,29.31,31.70,9.62,36.22,1022.50,2032.53,3469.02,3262.96,3549.73,500.31,496.60,11.80,0000 0000 0000 0000 000000
2014-07-03 10:42:23,0.01,0.15,0.00,24.93,29.32,31.70,9.49,36.08,1022.50,2032.32,3468.99,3262.65,3549.11,499.87,496.13,11.84,0000 0000 0000 0000 000000
2014-07-03 10:47:24,0.00,0.16,0.00,24.93,29.32,31.70,9.55,36.25,1022.49,2032.29,3468.95,3262.31,3549.02,499.87,496.27,11.88,0000 0000 0000 0000 000000
2014-07-03 10:52:25,0.02,0.16,0.00,24.93,29.32,31.69,9.40,36.26,1022.50,2032.42,3468.96,3262.39,3549.03,499.36,495.66,11.92,0000 0000 0000 0000 000000
2014-07-03 10:57:26,0.01,0.16,0.00,24.92,29.32,31.69,9.53,36.30,1022.50,2032.33,3468.69,3262.13,3549.01,499.66,495.77,11.97,0000 0000 0000 0000 000000
2014-07-03 11:02:27,0.02,0.16,0.00,24.92,29.32,31.69,9.55,36.21,1022.49,2032.44,3468.14,3262.03,3549.00,500.20,496.41,12.01,0000 0000 0000 0000 000000
2014-07-03 11:07:28,-0.03,0.16,0.00,24.88,29.32,31.70,9.47,36.23,1022.49,2032.25,3467.99,3262.00,3548.93,499.84,496.21,12.05,0000 0000 0000 0000 000000
2014-07-03 11:12:29,0.00,0.16,0.00,24.88,29.32,31.70,9.61,36.29,1022.50,2032.09,3467.72,3261.97,3548.37,500.02,496.66,12.09,0000 0000 0000 0000 000000
2014-07-03 11:17:30,0.02,0.16,0.00,24.88,29.31,31.69,9.56,36.40,1022.48,2032.16,3467.26,3261.92,3548.09,500.07,496.45,12.13,0000 0000 0000 0000 000000
2014-07-03 11:22:31,-0.00,0.16,0.00,24.86,29.30,31.69,9.61,36.35,1022.48,2032.12,3467.11,3261.88,3548.05,500.21,496.62,12.17,0000 0000 0000 0000 000000
2014-07-03 11:27:32,0.00,0.16,0.00,24.84,29.30,31.68,9.46,36.25,1022.48,2032.19,3467.18,3261.87,3548.07,499.77,496.16,12.22,0000 0000 0000 0000 000000
2014-07-03 11:32:33,0.00,0.16,0.00,24.85,29.30,31.68,9.54,36.38,1022.48,2032.15,3467.08,3261.86,3548.04,499.98,496.54,12.26,0000 0000 0000 0000 000000
2014-07-03 11:37:34,0.00,0.16,0.00,24.86,29.30,31.67,9.56,36.35,1022.48,2032.19,3467.12,3261.89,3548.05,499.70,496.30,12.30,0000 0000 0000 0000 000000
2014-07-03 11:42:35,0.00,0.16,0.00,24.84,29.30,31.67,9.50,36.27,1022.48,2032.26,3467.11,3261.94,3548.08,499.85,496.38,12.34,0000 0000 0000 0000 000000
2014-07-03 11:47:37,0.00,0.16,0.00,24.81,29.29,31.67,9.56,36.36,1022.48,2032.30,3467.06,3261.93,3548.06,499.89,496.35,12.38,0000 0000 0000 0000 000000
2014-07-03 11:52:38,0.00,0.16,0.00,24.81,29.27,31.66,9.54,36.42,1022.48,2032.32,3467.10,3261.95,3548.05,500.07,496.45,12.43,0000 0000 0000 0000 000000
2014-07-03 11:57:39,0.00,0.16,0.00,24.81,29.27,31.64,9.46,36.27,1022.46,2032.39,3467.09,3261.95,3548.08,499.51,496.15,12.47,0000 0000 0000 0000 000000
2014-07-03 12:02:40,0.02,0.16,0.00,24.79,29.27,31.64,9.60,36.31,1022.40,2032.38,3467.10,3261.95,3548.06,500.01,496.56,12.51,0000 0000 0000 0000 000000
2014-07-03 12:07:41,0.01,0.16,0.00,24.77,29.26,31.64,9.49,36.28,1022.35,2032.58,3467.04,3261.96,3548.05,500.05,496.59,12.55,0000 0000 0000 0000 000000
2014-07-03 12:12:42,0.00,0.16,0.00,24.75,29.25,31.63,9.51,36.31,1022.34,2032.65,3467.03,3261.97,3548.07,499.55,496.17,12.59,0000 0000 0000 0000 000000
2014-07-03 12:17:43,0.02,0.16,0.00,24.75,29.25,31.64,9.58,36.31,1022.24,2032.73,3467.03,3261.97,3548.11,500.27,496.65,12.63,0000 0000 0000 0000 000000
2014-07-03 12:22:45,-0.01,0.16,0.00,24.73,29.25,31.62,9.51,36.33,1022.20,2032.72,3467.05,3261.97,3548.08,499.86,496.45,12.68,0000 0000 0000 0000 000000
2014-07-03 12:27:46,0.01,0.16,0.00,24.70,29.23,31.61,9.59,36.38,1022.16,2032.85,3467.06,3261.99,3548.20,500.20,496.90,12.72,0000 0000 0000 0000 000000
2014-07-03 12:32:47,-0.00,0.16,0.00,24.70,29.22,31.61,9.52,36.38,1022.27,2032.96,3467.12,3261.99,3548.49,499.45,496.07,12.76,0000 0000 0000 0000 000000
2014-07-03 12:37:48,-0.01,0.16,0.00,24.72,29.22,31.59,9.57,36.44,1022.41,2032.93,3467.09,3261.99,3548.53,500.35,496.89,12.80,0000 0000 0000 0000 000000
2014-07-03 12:42:49,0.00,0.16,0.00,24.70,29.21,31.58,9.49,36.26,1022.41,2032.91,3467.08,3261.98,3548.31,500.42,497.11,12.84,0000 0000 0000 0000 000000
2014-07-03 12:47:50,0.00,0.16,0.00,24.68,29.20,31.58,9.59,36.45,1022.32,2032.95,3467.09,3261.99,3548.45,500.03,496.70,12.89,0000 0000 0000 0000 000000
2014-07-03 12:52:51,-0.01,0.16,0.00,24.67,29.20,31.57,9.61,37.58,1022.18,2032.99,3467.15,3261.99,3548.84,500.28,496.96,12.93,0000 0000 0000 0000 000000
2014-07-03 12:57:52,-0.01,0.16,0.00,24.67,29.18,31.57,9.63,37.61,1022.05,2032.99,3467.42,3261.99,3548.97,500.08,496.74,12.97,0000 0000 0000 0000 000000